Flag for Tanzania Weather past 2 weeks in Arusha, Tanzania

Now
63 °F

Partly sunny.


Feels Like: 63 °F
Forecast: 53 / 79 °F
Wind: 7 mph from South

Location: Nairobi / Wilson

Current Time: Sep 4, 2015 at 9:30:03 AM

Latest Report: Sep 4, 2015 at 9:00 AM


Visibility: N/A

Pressure: 30.27 "Hg (25.77 "Hg at 1366m altitude)

Humidity: 83%

Dew point: 57 °F

Location of ArushaLocation

Historic Weather in Arusha — Graph

°F

Arusha temperature yesterday

Maximum temperature yesterday: 77 °F (at 2:00 PM)
Minimum temperature yesterday: 55 °F (at 6:00 AM)
Average temperature yesterday: 68 °F

Past Weeks' High & Low Weather Summary

 TemperatureHumidityPressure
High79 °F (Aug 28, 3:00 PM)100% (Aug 23, 8:00 AM)30.30 "Hg (Aug 23, 8:00 AM)
Low50 °F (Aug 24, 6:00 AM)30% (Aug 28, 3:00 PM)30.09 "Hg (Aug 20, 3:00 PM)
Average68 °F61%30.19 "Hg
* Reported Aug 20 9:00 AM — Sep 4 8:00 AM, Arusha, Weather by CustomWeather, © 2015

Note: Actual official high and low records may vary slightly from our data, if they occured in-between our weather recording intervals... More about our weather records

Advertising

Arusha weather history for previous 24 hours

 ConditionsComfort  
Time TempWeatherWind HumidityBarometerVisibility
8:00 AM
Fri, Sep 4
61 °FMore clouds than sun.No wind88%30.24 "HgN/A
7:00 AM61 °FPartly sunny.No wind88%30.21 "HgN/A
6:00 AM61 °FPassing clouds.No wind88%30.21 "HgN/A
11:00 PM
Thu, Sep 3
61 °FPassing clouds.No wind100%30.21 "HgN/A
10:00 PM63 °FPassing clouds.No wind88%30.18 "HgN/A
9:00 PM64 °FPassing clouds.8 mph83%30.18 "HgN/A
8:00 PM66 °FPassing clouds.No wind83%30.15 "HgN/A
7:00 PM68 °FPassing clouds.7 mph73%30.12 "HgN/A
6:00 PM73 °FPartly sunny.6 mph53%30.12 "HgN/A
5:00 PM75 °FPartly sunny.12 mph47%30.09 "HgN/A
4:00 PM77 °FPartly sunny.12 mph42%30.12 "HgN/A
3:00 PM77 °FPartly sunny.12 mph44%30.12 "HgN/A
2:00 PM77 °FPartly sunny.12 mph47%30.15 "HgN/A
1:00 PM73 °FPartly sunny.12 mph53%30.18 "HgN/A
12:00 PM72 °FPartly sunny.No wind57%30.21 "HgN/A
11:00 AM70 °FPartly sunny.No wind60%30.21 "HgN/A
10:00 AM66 °FBroken clouds.No wind68%30.24 "HgN/A
9:00 AM63 °FPartly sunny.No wind77%30.24 "HgN/A
Weather by CustomWeather, © 2015

See weather overviewHow to use our weather pages